| time (UTC) | temp F | wind direction | speed MPH | gust MPH | rain 1hr in | rain 24hr in | rain mn in | humidity % | barometer mb |
| 20260509001603 | 63 | 0 | 0.0 | 1.0 | 0.00 | 0.00 | 0.00 | 71 | 1015.2 |
| 20260509000129 | 64 | 162 | 0.0 | 4.0 | 0.00 | 0.00 | 0.00 | 70 | 1015.0 |
| 20260508234604 | 64 | 0 | 0.0 | 2.0 | 0.00 | 0.00 | 0.00 | 68 | 1014.8 |
| 20260508233119 | 65 | 0 | 0.0 | 2.0 | 0.00 | 0.00 | 0.00 | 67 | 1015.0 |
| 20260508231600 | 65 | 170 | 0.0 | 3.0 | 0.00 | 0.00 | 0.00 | 66 | 1015.0 |
| 20260508230106 | 66 | 0 | 0.0 | 3.0 | 0.00 | 0.00 | 0.00 | 65 | 1014.8 |
| 20260508224559 | 66 | 167 | 0.0 | 3.0 | 0.00 | 0.00 | 0.00 | 63 | 1015.0 |
| 20260508223101 | 67 | 165 | 1.0 | 5.0 | 0.00 | 0.00 | 0.00 | 62 | 1015.0 |
| 20260508221604 | 67 | 182 | 1.0 | 5.0 | 0.00 | 0.00 | 0.00 | 61 | 1014.9 |
| 20260508220108 | 68 | 269 | 1.0 | 4.0 | 0.00 | 0.00 | 0.00 | 59 | 1014.9 |
| 20260508214558 | 68 | 140 | 1.0 | 3.0 | 0.00 | 0.00 | 0.00 | 57 | 1014.7 |
| 20260508213056 | 69 | 196 | 1.0 | 6.0 | 0.00 | 0.00 | 0.00 | 57 | 1015.0 |
| 20260508211559 | 69 | 178 | 1.0 | 7.0 | 0.00 | 0.00 | 0.00 | 55 | 1015.1 |
| 20260508210057 | 70 | 0 | 0.0 | 5.0 | 0.00 | 0.00 | 0.00 | 56 | 1014.9 |
| 20260508204601 | 70 | 217 | 1.0 | 6.0 | 0.00 | 0.00 | 0.00 | 53 | 1015.1 |
| 20260508203058 | 70 | 172 | 2.0 | 8.0 | 0.00 | 0.00 | 0.00 | 54 | 1015.0 |
| 20260508201556 | 71 | 159 | 2.0 | 8.0 | 0.00 | 0.00 | 0.00 | 53 | 1015.4 |
| 20260508200112 | 71 | 220 | 0.0 | 6.0 | 0.00 | 0.00 | 0.00 | 57 | 1015.5 |
| 20260508194558 | 70 | 190 | 1.0 | 5.0 | 0.00 | 0.00 | 0.00 | 55 | 1015.8 |
| 20260508193143 | 71 | 167 | 0.0 | 6.0 | 0.00 | 0.00 | 0.00 | 54 | 1015.9 |
| 20260508191603 | 70 | 330 | 1.0 | 3.0 | 0.00 | 0.00 | 0.00 | 60 | 1016.2 |
| 20260508190059 | 70 | 249 | 2.0 | 6.0 | 0.00 | 0.00 | 0.00 | 54 | 1016.3 |
| 20260508184606 | 71 | 213 | 0.0 | 3.0 | 0.00 | 0.00 | 0.00 | 52 | 1016.5 |
| 20260508183126 | 70 | 69 | 0.0 | 4.0 | 0.00 | 0.00 | 0.00 | 54 | 1017.0 |
| 20260508181606 | 69 | 148 | 1.0 | 5.0 | 0.00 | 0.00 | 0.00 | 57 | 1017.0 |
| 20260508180100 | 70 | 169 | 2.0 | 6.0 | 0.00 | 0.00 | 0.00 | 56 | 1017.3 |
| 20260508174603 | 68 | 0 | 1.0 | 5.0 | 0.00 | 0.00 | 0.00 | 59 | 1017.2 |
| 20260508173059 | 67 | 0 | 1.0 | 4.0 | 0.00 | 0.00 | 0.00 | 56 | 1017.5 |
| 20260508171600 | 67 | 64 | 1.0 | 3.0 | 0.00 | 0.00 | 0.00 | 57 | 1017.6 |
| 20260508170100 | 67 | 217 | 1.0 | 4.0 | 0.00 | 0.00 | 0.00 | 57 | 1017.8 |
| 20260508164601 | 70 | 189 | 1.0 | 5.0 | 0.00 | 0.00 | 0.00 | 54 | 1018.1 |
| 20260508163104 | 69 | 0 | 0.0 | 3.0 | 0.00 | 0.00 | 0.00 | 56 | 1018.3 |
| 20260508161559 | 67 | 78 | 1.0 | 5.0 | 0.00 | 0.00 | 0.00 | 53 | 1018.4 |
| 20260508160058 | 68 | 0 | 0.0 | 4.0 | 0.00 | 0.00 | 0.00 | 55 | 1018.6 |
| 20260508154623 | 68 | 180 | 0.0 | 4.0 | 0.00 | 0.00 | 0.00 | 65 | 1018.9 |
| 20260508153058 | 65 | 0 | 1.0 | 5.0 | 0.00 | 0.00 | 0.00 | 66 | 1019.0 |
| 20260508151609 | 66 | 360 | 1.0 | 6.0 | 0.00 | 0.00 | 0.00 | 56 | 1019.0 |
| 20260508150059 | 66 | 219 | 1.0 | 6.0 | 0.00 | 0.00 | 0.00 | 58 | 1019.0 |
| 20260508144609 | 67 | 126 | 0.0 | 6.0 | 0.00 | 0.00 | 0.00 | 60 | 1018.8 |
| 20260508143106 | 65 | 131 | 2.0 | 5.0 | 0.00 | 0.00 | 0.00 | 56 | 1018.9 |
| 20260508141606 | 65 | 0 | 0.0 | 4.0 | 0.00 | 0.00 | 0.00 | 58 | 1019.0 |
| 20260508140056 | 64 | 110 | 1.0 | 5.0 | 0.00 | 0.00 | 0.00 | 62 | 1019.2 |
| 20260508134622 | 63 | 59 | 1.0 | 3.0 | 0.00 | 0.09 | 0.00 | 63 | 1019.3 |
| 20260508133102 | 63 | 182 | 0.0 | 3.0 | 0.00 | 0.09 | 0.00 | 67 | 1019.3 |
| 20260508131603 | 61 | 86 | 1.0 | 4.0 | 0.00 | 0.09 | 0.00 | 69 | 1019.0 |
| 20260508130100 | 60 | 82 | 1.0 | 4.0 | 0.00 | 0.09 | 0.00 | 71 | 1018.8 |
| 20260508124602 | 58 | 135 | 1.0 | 3.0 | 0.00 | 0.10 | 0.00 | 75 | 1018.7 |
| 20260508123058 | 57 | 55 | 0.0 | 4.0 | 0.00 | 0.10 | 0.00 | 77 | 1018.7 |
| 20260508121600 | 56 | 0 | 0.0 | 3.0 | 0.00 | 0.10 | 0.00 | 79 | 1018.5 |
| 20260508120058 | 56 | 0 | 0.0 | 3.0 | 0.00 | 0.10 | 0.00 | 79 | 1018.3 |
| 20260508114604 | 54 | 313 | 0.0 | 3.0 | 0.00 | 0.39 | 0.00 | 84 | 1018.2 |
| 20260508113104 | 53 | 0 | 0.0 | 2.0 | 0.00 | 0.39 | 0.00 | 85 | 1018.0 |
| 20260508111600 | 52 | 0 | 0.0 | 2.0 | 0.00 | 0.39 | 0.00 | 85 | 1017.6 |
| 20260508110111 | 52 | 0 | 0.0 | 2.0 | 0.00 | 0.39 | 0.00 | 85 | 1017.2 |
| 20260508104557 | 52 | 0 | 0.0 | 2.0 | 0.00 | 0.52 | 0.00 | 85 | 1017.0 |
| 20260508103100 | 52 | 0 | 0.0 | 3.0 | 0.00 | 0.52 | 0.00 | 85 | 1016.8 |
| 20260508101600 | 52 | 345 | 0.0 | 2.0 | 0.00 | 0.52 | 0.00 | 84 | 1016.5 |
| 20260508100112 | 52 | 327 | 0.0 | 3.0 | 0.00 | 0.52 | 0.00 | 84 | 1016.3 |
| 20260508094608 | 52 | 0 | 0.0 | 2.0 | 0.00 | 0.52 | 0.00 | 84 | 1016.2 |
| 20260508093059 | 52 | 0 | 0.0 | 2.0 | 0.00 | 0.52 | 0.00 | 85 | 1016.1 |
| 20260508091606 | 52 | 0 | 0.0 | 0.0 | 0.00 | 0.52 | 0.00 | 86 | 1016.0 |
| 20260508090114 | 52 | 0 | 0.0 | 1.0 | 0.00 | 0.52 | 0.00 | 84 | 1015.9 |
| 20260508084557 | 53 | 0 | 0.0 | 1.0 | 0.00 | 0.91 | 0.00 | 81 | 1015.9 |
| 20260508083059 | 54 | 0 | 0.0 | 1.0 | 0.00 | 0.91 | 0.00 | 80 | 1015.8 |
| 20260508081608 | 54 | 0 | 0.0 | 3.0 | 0.00 | 0.91 | 0.00 | 80 | 1015.9 |
| 20260508080100 | 53 | 330 | 0.0 | 2.0 | 0.00 | 0.91 | 0.00 | 84 | 1015.8 |
| 20260508074600 | 53 | 0 | 0.0 | 0.0 | 0.00 | 1.04 | 0.00 | 85 | 1015.8 |
| 20260508073111 | 53 | 0 | 0.0 | 0.0 | 0.00 | 1.04 | 0.00 | 85 | 1015.8 |
| 20260508071606 | 52 | 0 | 0.0 | 0.0 | 0.00 | 1.04 | 0.00 | 87 | 1015.8 |
| 20260508064620 | 53 | 0 | 0.0 | 0.0 | 0.00 | 1.31 | 0.00 | 83 | 1015.5 |
| 20260508063110 | 53 | 0 | 0.0 | 0.0 | 0.00 | 1.31 | 0.00 | 81 | 1015.4 |
| 20260508061608 | 54 | 0 | 0.0 | 1.0 | 0.00 | 1.31 | 0.00 | 76 | 1015.4 |
| 20260508060111 | 56 | 0 | 0.0 | 1.0 | 0.00 | 1.31 | 0.00 | 73 | 1015.6 |
| 20260508054557 | 56 | 0 | 0.0 | 1.0 | 0.00 | 1.95 | 0.00 | 73 | 1015.6 |
| 20260508053100 | 56 | 330 | 0.0 | 3.0 | 0.00 | 1.95 | 0.00 | 72 | 1015.6 |
| 20260508051617 | 56 | 0 | 0.0 | 1.0 | 0.00 | 1.95 | 0.00 | 73 | 1015.4 |
| 20260508050057 | 57 | 0 | 0.0 | 2.0 | 0.00 | 1.95 | 0.00 | 71 | 1015.4 |
| 20260508044600 | 57 | 0 | 0.0 | 2.0 | 0.00 | 2.18 | 0.00 | 70 | 1015.3 |
| 20260508043108 | 58 | 339 | 0.0 | 4.0 | 0.00 | 2.18 | 0.00 | 69 | 1015.0 |
| 20260508041605 | 58 | 49 | 0.0 | 1.0 | 0.00 | 2.18 | 0.00 | 69 | 1014.9 |
| 20260508040101 | 58 | 34 | 0.0 | 3.0 | 0.00 | 2.18 | 0.00 | 69 | 1015.0 |
| 20260508034558 | 59 | 0 | 0.0 | 2.0 | 0.00 | 2.18 | 2.18 | 68 | 1015.0 |
| 20260508033100 | 59 | 0 | 0.0 | 2.0 | 0.00 | 2.18 | 2.18 | 67 | 1015.0 |
| 20260508031600 | 60 | 0 | 0.0 | 2.0 | 0.00 | 2.18 | 2.18 | 66 | 1015.0 |
| 20260508030104 | 60 | 0 | 0.0 | 2.0 | 0.00 | 2.18 | 2.18 | 66 | 1014.7 |
| 20260508024619 | 61 | 5 | 0.0 | 2.0 | 0.00 | 2.27 | 2.18 | 67 | 1014.6 |
| 20260508023058 | 61 | 0 | 0.0 | 3.0 | 0.00 | 2.27 | 2.18 | 67 | 1014.2 |
| 20260508021606 | 60 | 0 | 0.0 | 3.0 | 0.00 | 2.27 | 2.18 | 69 | 1013.9 |
| 20260508020130 | 61 | 0 | 0.0 | 4.0 | 0.00 | 2.27 | 2.18 | 70 | 1013.9 |
| 20260508014559 | 61 | 0 | 0.0 | 5.0 | 0.00 | 2.65 | 2.18 | 71 | 1013.5 |
| 20260508013059 | 61 | 28 | 1.0 | 4.0 | 0.00 | 2.65 | 2.18 | 71 | 1013.2 |
| 20260508011607 | 62 | 239 | 1.0 | 4.0 | 0.00 | 2.65 | 2.18 | 71 | 1012.9 |
| 20260508010100 | 63 | 336 | 0.0 | 3.0 | 0.00 | 2.65 | 2.18 | 71 | 1012.6 |
| 20260508004602 | 64 | 348 | 0.0 | 4.0 | 0.00 | 2.66 | 2.18 | 70 | 1012.3 |
| 20260508003059 | 64 | 0 | 1.0 | 4.0 | 0.00 | 2.66 | 2.18 | 69 | 1011.8 |